Other Public Products
Issued by NWS Charleston, SC

Current Version | Previous Version | Graphics & Text | Print | Product List | Glossary On
Versions: 1 2 3 4 5 6 7 8 9 10 11 12 13 14 15 16 17 18 19 20 21 22 23 24 25 26 27 28 29 30 31 32 33 34 35 36 37 38 39 40 41 42 43 44 45 46 47 48 49 50
000
FPUS82 KCHS 280311
OPUCHS

TEST...KCHS/KSAV Gateway Observations...TEST
National Weather Service Charleston SC
1000 PM EST MON FEB 27 2017

NOTE: "fair" indicates few or no clouds below 12,000 feet with no
significant weather and/or obstructions to visibility.

SCZ050-WAZ558-NCZ071-TXZ119-213-PAZ071-DCZ001-FLZ074-172-MI076-
NYZ176-178-MAZ016-IL014-TNZ027-NJZ106-GAZ044-MD014-280400-
...Gateway Observations for Charleston International...

CITY           SKY/WX    TMP DP  RH WIND       PRES   REMARKS
Chas Airport   MOCLDY    63  56  78 E5        30.33R
Seattle        LGT RAIN  36  33  89 E5        29.73R WCI  32
Charlotte      CLOUDY    59  28  30 E6        30.32S
Dallas DFW     MOCLDY    70  62  76 S6        29.87S
Dallas Love    CLOUDY    74  62  66 SW3       29.89R
Philladelphia  CLOUDY    48  31  51 CALM      30.41R
Wash National  CLOUDY    52  36  54 S6        30.39S
Baltimore      CLOUDY    48  35  60 S5        30.38S
Miami          MOCLDY    77  71  82 E14       30.24R
Detroit        MOCLDY    43  37  79 S8        30.21S
Newark         MOCLDY    46  31  55 SW3       30.41R
Laguardia      PTCLDY    50  30  46 SW6       30.40R
J F K          CLOUDY    45  39  79 SW9       30.42R
Boston Logan   CLEAR     43  28  55 SW12      30.37S
Ft. Lauderdale PTCLDY    76  72  87 E14       30.24R
Chicago O`Hare CLOUDY    45  34  65 SE10      30.04F
Chicago Midway CLOUDY    49  34  56 SE12      30.06F
Houston Bush   CLOUDY    73  69  87 SE12      29.96R
Houston Hobby  CLOUDY    72  70  93 S10       29.97R
Nashville      CLEAR     51  45  79 SE7       30.19R
Atlanta        MOCLDY    50  48  93 E7        30.26S

$$

GAZ044-118-TXZ119-213-NCZ071-DCZ001-MDZ014-506-PAZ021-071-NJZ106-
NYZ176-178-MAZ106-OHZ011-021-055-MIZ076-KYZ091-ILZ014-INZ047-
MNZ060-ONZ431-280400-
...Gateway Observations for Savannah International...

CITY           SKY/WX    TMP DP  RH WIND       PRES   REMARKS
Savannah Arpt  MOCLDY    64  57  78 E5        30.31S
Atlanta        MOCLDY    50  48  93 E7        30.26S
Charlotte      CLOUDY    59  28  30 E6        30.32S
Dallas DFW     MOCLDY    70  62  76 S6        29.87S
Houston Bush   CLOUDY    73  69  87 SE12      29.96R
Wash National  CLOUDY    52  36  54 S6        30.39S
Wash Dulles    CLOUDY    51  30  44 S6        30.37S
Baltimore      CLOUDY    48  35  60 S5        30.38S
Philadelphia   CLOUDY    48  31  51 CALM      30.41R
Newark         MOCLDY    46  31  55 SW3       30.41R
Laguardia      PTCLDY    50  30  46 SW6       30.40R
J F K          CLOUDY    45  39  79 SW9       30.42R
Boston         CLEAR     43  28  55 SW12      30.37S
Pittsburg      CLOUDY    40  39  97 CALM      30.27S
Akron          CLOUDY    41  35  79 SE9       30.24F
Cleveland      PTCLDY    42  34  73 S7        30.26S
Cincinnati     CLEAR     43  40  89 SE8       30.19S
Columbus       CLEAR     40  39  98 SE3       30.23S
Detroit        MOCLDY    43  37  79 S8        30.21S
Chicago O`Hare CLOUDY    45  34  65 SE10      30.04F
Minneapolis    CLOUDY    36  25  64 SE7       29.88S WCI  30
Indianapolis   CLOUDY    43  40  89 SE7       30.15R
Toronto Canada PTCLDY    41  21  45 SE3       30.25R

$$




USA.gov is the U.S. government's official web portal to all federal, state and local government web resources and services.